Regional Weather Roundup
Issued by NWS

Home | Current Version | Previous Version | Graphics & Text | Print | Product List | Glossary On
Versions: 1 2 3 4 5 6 7 8 9 10 11 12 13 14 15 16 17 18 19 20 21 22 23 24 25 26 27 28 29 30 31 32 33 34 35 36 37 38 39 40 41 42 43 44 45 46 47 48 49 50
000
ASUS45 KBOU 210107
RWRCO

WEATHER ROUNDUP FOR COLORADO
NATIONAL WEATHER SERVICE DENVER/BOULDER CO
700 PM MDT WED AUG 20 2014

NOTE: "FAIR" INDICATES FEW OR NO CLOUDS BELOW 12000 FEET WITH NO
SIGNIFICANT WEATHER AND/OR OBSTRUCTIONS TO VISIBILITY.

COZ001>005-013-030-031-210200-
...NORTHWEST COLORADO...

CITY           SKY/WX    TMP DP  RH WIND       PRES   REMARKS
CRAIG          MOSUNNY   71  47  42 SW7       30.06S
HAYDEN         MOSUNNY   64  52  63 SE10      30.10S
MEEKER         MOSUNNY   68  52  56 E3        30.07S
MOUNT WERNER   NOT AVBL
STEAMBOAT SPGS PTCLDY    62  51  65 E8        30.12S
WALDEN         CLOUDY    59  45  58 S9G17     30.21R
$$

COZ006>008-011-210200-
...WEST CENTRAL VALLEYS...

CITY           SKY/WX    TMP DP  RH WIND       PRES   REMARKS
GRAND JUNCTION SUNNY     79  47  32 W10       29.96S
MONTROSE       MOSUNNY   76  40  27 S6        30.06S
EAGLE          PTCLDY    72  46  40 VRB5      30.11S
RIFLE          SUNNY     79  46  31 W15       30.00R
DELTA          MOSUNNY   82  46  27 SW7       30.00R
NUCLA          MOSUNNY   77  39  25 SW6       30.10S
$$

COZ017>023-064>068-210200-
...SOUTHWEST COLORADO...

CITY           SKY/WX    TMP DP  RH WIND       PRES   REMARKS
DURANGO        SUNNY     76  35  22 W13G28    30.11S
CORTEZ         SUNNY     79  37  22 W15       30.09S
PAGOSA SPRINGS CLEAR     74  32  22 SW8       30.18S
TELLURIDE      MOSUNNY   64  41  42 W12G17    30.29R
WOLF CREEK PAS NOT AVBL
$$

COZ009-010-012-014-032>034-037-058>063-210200-
...CENTRAL COLORADO...

CITY           SKY/WX    TMP DP  RH WIND       PRES   REMARKS
ASPEN          PTCLDY    65  45  48 CALM      30.17S
BUENA VISTA    MOCLDY    71  37  29 SW13      30.14R
COPPER MTN     MOCLDY    50  41  71 W18       30.47R
BERTHOUD PASS  FAIR      45  43  93 NW17      30.50S
COTTONWOOD PAS CLOUDY    63  34  34 W18       30.30R
GUNNISON       MOCLDY    72  37  28 SW10      30.17S
KREMMLING      MOCLDY    64  41  42 N8        30.17S
LEADVILLE      MOCLDY    59  41  51 NW8G18    30.29R
MONARCH PASS   MOCLDY    46  39  76 W16       30.57S
SALIDA         CLOUDY    71  42  35 SW13G21   30.19S
SUNLIGHT       MOSUNNY   52  46  82 CALM      30.39F
WILKERSON PASS DRIZZLE   55  41  58 CALM      30.43R
$$

COZ069>075-210200-
...SAN LUIS VALLEY/SANGRE DE CRISTO MOUNTAINS...

CITY           SKY/WX    TMP DP  RH WIND       PRES   REMARKS
ALAMOSA        PTCLDY    76  43  30 SW14      30.10S
LA VETA PASS   NOT AVBL
SAGUACHE       MOCLDY    64  45  48 NW16      30.18R
$$

COZ035-036-038>040-210200-
...NORTHERN COLORADO FRONT RANGE...

CITY           SKY/WX    TMP DP  RH WIND       PRES   REMARKS
DENVER INTL AP MOCLDY    75  51  43 S8        29.94R
DMNS CITY PARK   N/A     76  51  41 N5G12     29.94R
AURORA         PTCLDY    76  53  45 SE7       29.97R
FRONT RANGE AP NOT AVBL
ERIE MUNI ARPT MOCLDY    83  45  26 SE13      29.92S
BOULDER MUN AP PTCLDY    79  46  31 S3        29.93R
CENTENNIAL     PTCLDY    76  48  37 SE5       29.97R
BROOMFIELD     MOCLDY    81  45  28 E9        29.97R
FORT COLLINS   MOCLDY    75  54  46 N9G20     29.92R
LONGMONT       MOCLDY    85  46  25 SE5       29.93R
$$

COZ041-046-047-076>085-087-088-210200-
...PIKES PEAK/PALMER DIVIDE AND SOUTHERN FOOTHILLS...

CITY           SKY/WX    TMP DP  RH WIND       PRES   REMARKS
COLO. SPRINGS  MOCLDY    72  52  49 N9        30.00S
A. F. ACADEMY  PTCLDY    73  52  48 NW7       30.03R
ELLICOTT       PTCLDY    77  50  38 NE14      29.98S
FALCON         PTCLDY    71  51  50 NE8       30.06S
FORT CARSON    PTCLDY    73  55  53 N9        29.96S
LIMON          PTCLDY    79  50  36 N10       29.95S
MONUMENT HILL  PTCLDY    70  50  49 SE7       30.06F
TRINIDAD       MOCLDY    83  44  25 W13G21    29.95S
$$

COZ042>045-048>051-090-091-210200-
...NORTHEAST COLORADO...

CITY           SKY/WX    TMP DP  RH WIND       PRES   REMARKS
GREELEY ARPT   MOCLDY    72  54  53 S9G26     29.94R THUNDER
AKRON          CLOUDY    75  57  53 SE14G23   29.90S
BURLINGTON     CLOUDY    87  52  29 NE7       29.84R
WRAY           DRIZZLE   83  59  44 NW12      29.85R
STERLING       CLOUDY    84  59  42 E9        29.84R
HOLYOKE        NOT AVBL
FORT MORGAN    CLOUDY    82  54  37 S6        29.88R
$$

COZ086-089-092>099-210200-
...SOUTHEAST COLORADO...

CITY           SKY/WX    TMP DP  RH WIND       PRES   REMARKS
PUEBLO         PTCLDY    89  46  22 SE8       29.83F
LA JUNTA       MOCLDY    88  53  30 SE10      29.81S
LAMAR          MOCLDY    90  50  25 SW13      29.78R
SPRINGFIELD      N/A     87  49  26 W6        29.86R
$$



USA.gov is the U.S. government's official web portal to all federal, state and local government web resources and services.